SAS85F EKCH-EGCC

Flight info

Callsign SAS85F
Flight time 1h 35m
Altitude 38000
Route ODDON DCT LESRA DCT ROPAL DCT TILNI
Aircraft A320/M-SDE3FGHIRWY/LB1

Departure

Time 2026-05-05 07:13
Airport Copenhagen Kastrup Airport (EKCH)

Arrival

Time 2026-05-05 08:48
Airport Manchester Airport (EGCC)
Time Latitude Longitude Altitude Speed Heading
2026-05-05 06:48 55.62670 12.64439 17 ft 0 kts 101°
2026-05-05 07:01 55.62672 12.64425 18 ft 3 kts 102°
2026-05-05 07:02 55.62676 12.64390 17 ft 3 kts 104°
2026-05-05 07:02 55.62681 12.64357 17 ft 3 kts 93°
2026-05-05 07:02 55.62679 12.64329 17 ft 3 kts 41°
2026-05-05 07:02 55.62668 12.64317 20 ft 3 kts 21°
2026-05-05 07:03 55.62649 12.64304 18 ft 3 kts 22°
2026-05-05 07:03 55.62631 12.64290 18 ft 2 kts 30°
2026-05-05 07:03 55.62622 12.64280 19 ft 2 kts 33°
2026-05-05 07:03 55.62607 12.64260 18 ft 3 kts 51°
2026-05-05 07:04 55.62597 12.64231 18 ft 3 kts 81°
2026-05-05 07:04 55.62598 12.64200 18 ft 2 kts 118°
2026-05-05 07:04 55.62604 12.64183 18 ft 2 kts 123°
2026-05-05 07:04 55.62615 12.64154 18 ft 3 kts 123°
2026-05-05 07:05 55.62625 12.64124 20 ft 2 kts 123°
2026-05-05 07:05 55.62629 12.64114 20 ft 0 kts 123°
2026-05-05 07:05 55.62627 12.64121 20 ft 0 kts 123°
2026-05-05 07:08 55.62621 12.64137 18 ft 3 kts 123°
2026-05-05 07:08 55.62604 12.64183 17 ft 6 kts 123°
2026-05-05 07:08 55.62577 12.64256 18 ft 8 kts 123°
2026-05-05 07:09 55.62541 12.64355 17 ft 11 kts 123°
2026-05-05 07:09 55.62500 12.64465 17 ft 6 kts 123°
2026-05-05 07:09 55.62461 12.64487 17 ft 8 kts 197°
2026-05-05 07:09 55.62401 12.64457 17 ft 10 kts 195°
2026-05-05 07:10 55.62323 12.64420 17 ft 13 kts 195°
2026-05-05 07:10 55.62223 12.64366 15 ft 17 kts 202°
2026-05-05 07:10 55.62149 12.64304 17 ft 11 kts 206°
2026-05-05 07:10 55.62070 12.64237 17 ft 14 kts 205°
2026-05-05 07:11 55.61973 12.64157 17 ft 17 kts 205°
2026-05-05 07:11 55.61889 12.64086 17 ft 14 kts 205°
2026-05-05 07:11 55.61818 12.64072 17 ft 11 kts 175°
2026-05-05 07:11 55.61734 12.64083 20 ft 13 kts 176°
2026-05-05 07:12 55.61655 12.64089 21 ft 9 kts 184°
2026-05-05 07:12 55.61597 12.64032 21 ft 12 kts 220°
2026-05-05 07:12 55.61491 12.63868 19 ft 43 kts 221°
2026-05-05 07:12 55.61076 12.63225 21 ft 112 kts 221°
2026-05-05 07:13 55.60352 12.62104 19 ft 162 kts 221°
2026-05-05 07:13 55.59455 12.60754 473 ft 172 kts 222°
2026-05-05 07:13 55.58519 12.59384 1136 ft 179 kts 222°
2026-05-05 07:13 55.57528 12.57853 1474 ft 200 kts 224°
2026-05-05 07:14 55.56478 12.56139 1908 ft 213 kts 231°
2026-05-05 07:14 55.55929 12.53630 2209 ft 233 kts 273°
2026-05-05 07:14 55.56171 12.50699 2776 ft 250 kts 282°
2026-05-05 07:14 55.56481 12.47644 3702 ft 254 kts 280°
2026-05-05 07:15 55.56781 12.44550 4586 ft 259 kts 279°
2026-05-05 07:15 55.57069 12.41411 4981 ft 259 kts 278°
2026-05-05 07:15 55.57345 12.38275 5991 ft 258 kts 277°
2026-05-05 07:15 55.57616 12.35148 6995 ft 258 kts 277°
2026-05-05 07:16 55.57851 12.31994 7937 ft 259 kts 271°
2026-05-05 07:16 55.57826 12.28809 8873 ft 260 kts 267°
2026-05-05 07:16 55.57774 12.25604 9819 ft 262 kts 267°
2026-05-05 07:16 55.57713 12.22312 10354 ft 278 kts 266°
2026-05-05 07:17 55.57640 12.18763 10625 ft 300 kts 266°
2026-05-05 07:17 55.57562 12.15018 11233 ft 308 kts 266°
2026-05-05 07:17 55.57484 12.11224 11988 ft 312 kts 266°
2026-05-05 07:17 55.57406 12.07354 12783 ft 315 kts 266°
2026-05-05 07:18 55.57330 12.03449 13584 ft 319 kts 266°
2026-05-05 07:18 55.57253 11.99509 14311 ft 322 kts 266°
2026-05-05 07:18 55.57173 11.95531 15030 ft 325 kts 266°
2026-05-05 07:18 55.57091 11.91523 15748 ft 328 kts 266°
2026-05-05 07:19 55.57004 11.87471 16453 ft 331 kts 266°
2026-05-05 07:19 55.56913 11.83391 17140 ft 334 kts 266°
2026-05-05 07:19 55.56819 11.79265 17842 ft 337 kts 266°
2026-05-05 07:19 55.56722 11.75099 18501 ft 341 kts 266°
2026-05-05 07:20 55.56623 11.70896 19115 ft 344 kts 266°
2026-05-05 07:20 55.56524 11.66750 19763 ft 347 kts 266°
2026-05-05 07:20 55.56419 11.62412 20457 ft 350 kts 266°
2026-05-05 07:20 55.56316 11.58101 21123 ft 353 kts 266°
2026-05-05 07:21 55.56216 11.53806 21764 ft 356 kts 265°
2026-05-05 07:21 55.56110 11.49420 22399 ft 359 kts 265°
2026-05-05 07:21 55.56001 11.44990 23033 ft 362 kts 265°
2026-05-05 07:21 55.55887 11.40473 23650 ft 365 kts 265°
2026-05-05 07:22 55.55774 11.36031 24168 ft 368 kts 265°
2026-05-05 07:22 55.55654 11.31439 24683 ft 371 kts 265°
2026-05-05 07:22 55.55534 11.26921 25176 ft 375 kts 265°
2026-05-05 07:22 55.55410 11.22310 25665 ft 378 kts 265°
2026-05-05 07:23 55.55285 11.17645 26139 ft 382 kts 266°
2026-05-05 07:23 55.55155 11.12911 26499 ft 389 kts 266°
2026-05-05 07:23 55.55022 11.08124 26934 ft 393 kts 266°
2026-05-05 07:23 55.54885 11.03290 27395 ft 396 kts 265°
2026-05-05 07:24 55.54745 10.98410 27853 ft 399 kts 265°
2026-05-05 07:24 55.54601 10.93504 28310 ft 402 kts 265°
2026-05-05 07:24 55.54455 10.88556 28753 ft 405 kts 265°
2026-05-05 07:24 55.54304 10.83579 29176 ft 407 kts 265°
2026-05-05 07:25 55.54149 10.78567 29588 ft 410 kts 265°
2026-05-05 07:25 55.53992 10.73521 29982 ft 413 kts 265°
2026-05-05 07:25 55.53831 10.68438 30311 ft 416 kts 265°
2026-05-05 07:25 55.53668 10.63335 30665 ft 417 kts 265°
2026-05-05 07:26 55.53504 10.58228 31116 ft 416 kts 265°
2026-05-05 07:26 55.53337 10.53129 31568 ft 415 kts 265°
2026-05-05 07:26 55.53169 10.48043 32018 ft 415 kts 265°
2026-05-05 07:26 55.52999 10.42967 32468 ft 414 kts 265°
2026-05-05 07:27 55.52827 10.37895 32919 ft 414 kts 265°
2026-05-05 07:27 55.52653 10.32823 33399 ft 414 kts 265°
2026-05-05 07:27 55.52480 10.27757 33833 ft 413 kts 265°
2026-05-05 07:27 55.52304 10.22688 34242 ft 413 kts 265°
2026-05-05 07:28 55.52126 10.17637 34632 ft 412 kts 265°
2026-05-05 07:28 55.51944 10.12589 35027 ft 412 kts 265°
2026-05-05 07:28 55.51761 10.07552 35418 ft 411 kts 265°
2026-05-05 07:28 55.51579 10.02581 35821 ft 410 kts 265°
2026-05-05 07:29 55.51392 9.97514 36235 ft 408 kts 265°
2026-05-05 07:29 55.51209 9.92594 36608 ft 407 kts 265°
2026-05-05 07:29 55.51022 9.87605 36960 ft 407 kts 265°
2026-05-05 07:29 55.50834 9.82634 37300 ft 406 kts 265°
2026-05-05 07:30 55.50644 9.77670 37631 ft 405 kts 265°
2026-05-05 07:30 55.50254 9.67715 37983 ft 409 kts 264°
2026-05-05 07:30 55.50049 9.62695 37975 ft 410 kts 264°
2026-05-05 07:31 55.49635 9.52656 37990 ft 411 kts 264°
2026-05-05 07:31 55.49223 9.42598 37989 ft 411 kts 264°
2026-05-05 07:32 55.48799 9.32544 37999 ft 411 kts 264°
2026-05-05 07:32 55.48366 9.22491 38006 ft 411 kts 264°
2026-05-05 07:33 55.47926 9.12437 38005 ft 411 kts 264°
2026-05-05 07:33 55.47477 9.02388 38006 ft 411 kts 264°
2026-05-05 07:34 55.47019 8.92398 38009 ft 411 kts 264°
2026-05-05 07:34 55.46552 8.82345 37996 ft 411 kts 264°
2026-05-05 07:35 55.46078 8.72290 37994 ft 412 kts 264°
2026-05-05 07:35 55.45599 8.62232 37991 ft 412 kts 264°
2026-05-05 07:36 55.45106 8.52161 38007 ft 413 kts 264°
2026-05-05 07:36 55.44597 8.42078 38010 ft 413 kts 264°
2026-05-05 07:37 55.44086 8.31987 38014 ft 413 kts 264°
2026-05-05 07:37 55.43572 8.21905 38016 ft 414 kts 264°
2026-05-05 07:38 55.43048 8.11812 38009 ft 414 kts 264°
2026-05-05 07:38 55.42510 8.01718 38015 ft 414 kts 263°
2026-05-05 07:39 55.41959 7.91625 38016 ft 415 kts 263°
2026-05-05 07:39 55.41411 7.81523 38023 ft 415 kts 263°
2026-05-05 07:40 55.40848 7.71408 38030 ft 415 kts 263°
2026-05-05 07:40 55.40278 7.61315 38035 ft 415 kts 263°
2026-05-05 07:41 55.39700 7.51218 38031 ft 414 kts 263°
2026-05-05 07:41 55.39218 7.42855 38030 ft 414 kts 263°
2026-05-05 07:42 55.38531 7.31137 38026 ft 414 kts 263°
2026-05-05 07:42 55.37922 7.21062 38033 ft 414 kts 263°
2026-05-05 07:43 55.37411 7.12632 38032 ft 414 kts 263°
2026-05-05 07:43 55.36797 7.02569 38031 ft 414 kts 263°
2026-05-05 07:44 55.36175 6.92498 38033 ft 414 kts 263°
2026-05-05 07:44 55.35547 6.82441 38031 ft 414 kts 263°
2026-05-05 07:45 55.34909 6.72444 38033 ft 414 kts 263°
2026-05-05 07:45 55.34259 6.62393 38014 ft 414 kts 263°
2026-05-05 07:46 55.33602 6.52351 38007 ft 414 kts 263°
2026-05-05 07:46 55.32936 6.42278 38004 ft 415 kts 263°
2026-05-05 07:47 55.32266 6.32233 38004 ft 415 kts 263°
2026-05-05 07:47 55.31577 6.22180 38021 ft 416 kts 262°
2026-05-05 07:48 55.30881 6.12105 38021 ft 416 kts 262°
2026-05-05 07:48 55.30179 6.02022 38026 ft 416 kts 263°
2026-05-05 07:49 55.29468 5.91934 38022 ft 416 kts 262°
2026-05-05 07:49 55.28749 5.81853 38029 ft 417 kts 262°
2026-05-05 07:50 55.28022 5.71768 38028 ft 416 kts 262°
2026-05-05 07:50 55.27292 5.61761 38023 ft 416 kts 262°
2026-05-05 07:51 55.26546 5.51694 38043 ft 416 kts 262°
2026-05-05 07:51 55.25793 5.41612 38041 ft 416 kts 262°
2026-05-05 07:52 55.25030 5.31552 38039 ft 416 kts 262°
2026-05-05 07:52 55.24253 5.21495 38035 ft 416 kts 262°
2026-05-05 07:53 55.23466 5.11431 38028 ft 416 kts 262°
2026-05-05 07:53 55.22679 5.01384 38025 ft 416 kts 262°
2026-05-05 07:54 55.21895 4.91329 38033 ft 416 kts 262°
2026-05-05 07:54 55.21095 4.81292 38032 ft 416 kts 262°
2026-05-05 07:55 55.20282 4.71269 38037 ft 416 kts 262°
2026-05-05 07:55 55.19467 4.61306 38035 ft 416 kts 262°
2026-05-05 07:56 55.18643 4.51273 38036 ft 416 kts 262°
2026-05-05 07:56 55.17813 4.41245 38022 ft 416 kts 261°
2026-05-05 07:57 55.16965 4.31206 38017 ft 417 kts 261°
2026-05-05 07:57 55.16110 4.21193 38021 ft 418 kts 261°
2026-05-05 07:58 55.15243 4.11126 38026 ft 418 kts 261°
2026-05-05 07:58 55.14372 4.01060 38021 ft 419 kts 261°
2026-05-05 07:59 55.13503 3.90993 38024 ft 419 kts 262°
2026-05-05 07:59 55.12717 3.80937 38033 ft 419 kts 262°
2026-05-05 08:00 55.11952 3.70856 38015 ft 419 kts 262°
2026-05-05 08:00 55.11170 3.60770 38019 ft 419 kts 262°
2026-05-05 08:01 55.10368 3.50691 38018 ft 419 kts 262°
2026-05-05 08:01 55.09552 3.40680 38031 ft 419 kts 262°
2026-05-05 08:02 55.08724 3.30637 38023 ft 419 kts 262°
2026-05-05 08:02 55.07888 3.20501 38016 ft 419 kts 262°
2026-05-05 08:03 55.07049 3.10462 38025 ft 419 kts 262°
2026-05-05 08:03 55.06210 3.00465 38006 ft 419 kts 262°
2026-05-05 08:04 55.05352 2.90344 38022 ft 419 kts 261°
2026-05-05 08:04 55.04491 2.80348 38007 ft 419 kts 261°
2026-05-05 08:05 55.03616 2.70307 38016 ft 419 kts 261°
2026-05-05 08:05 55.02735 2.60284 38015 ft 418 kts 261°
2026-05-05 08:06 55.01852 2.50251 38024 ft 418 kts 261°
2026-05-05 08:06 55.00958 2.40253 38022 ft 418 kts 261°
2026-05-05 08:07 55.00051 2.30242 38021 ft 418 kts 261°
2026-05-05 08:07 54.99140 2.20225 38021 ft 418 kts 261°
2026-05-05 08:08 54.98218 2.10233 38003 ft 419 kts 261°
2026-05-05 08:08 54.97287 2.00203 38001 ft 420 kts 261°
2026-05-05 08:09 54.96345 1.90178 37993 ft 420 kts 261°
2026-05-05 08:09 54.95399 1.80145 38009 ft 420 kts 261°
2026-05-05 08:10 54.94436 1.70098 38010 ft 420 kts 261°
2026-05-05 08:10 54.93466 1.60049 38011 ft 421 kts 261°
2026-05-05 08:11 54.92497 1.50100 38012 ft 420 kts 261°
2026-05-05 08:11 54.91512 1.40073 38012 ft 420 kts 260°
2026-05-05 08:12 54.90523 1.30067 38015 ft 420 kts 260°
2026-05-05 08:12 54.89529 1.20055 38014 ft 420 kts 260°
2026-05-05 08:13 54.88523 1.10043 38011 ft 420 kts 260°
2026-05-05 08:13 54.87504 1.00052 38013 ft 420 kts 260°
2026-05-05 08:14 54.86485 0.90065 38012 ft 420 kts 260°
2026-05-05 08:14 54.85455 0.80113 38013 ft 420 kts 260°
2026-05-05 08:15 54.84415 0.70193 38013 ft 420 kts 260°
2026-05-05 08:15 54.83366 0.60233 38015 ft 420 kts 260°
2026-05-05 08:16 54.82309 0.50269 38019 ft 420 kts 259°
2026-05-05 08:16 54.81242 0.40305 38011 ft 421 kts 259°
2026-05-05 08:17 54.80166 0.30326 38022 ft 421 kts 259°
2026-05-05 08:17 54.79084 0.20345 38024 ft 421 kts 259°
2026-05-05 08:18 54.77998 0.10374 38025 ft 421 kts 259°
2026-05-05 08:18 54.76895 0.00403 38027 ft 422 kts 259°
2026-05-05 08:19 54.75782 -0.09564 38032 ft 422 kts 259°
2026-05-05 08:19 54.74665 -0.19548 38013 ft 422 kts 259°
2026-05-05 08:20 54.73537 -0.29516 38013 ft 423 kts 259°
2026-05-05 08:20 54.72395 -0.39514 38017 ft 423 kts 259°
2026-05-05 08:21 54.71259 -0.49496 38022 ft 423 kts 259°
2026-05-05 08:21 54.70106 -0.59502 38024 ft 423 kts 259°
2026-05-05 08:22 54.68948 -0.69385 38030 ft 423 kts 259°
2026-05-05 08:22 54.67775 -0.79368 37994 ft 424 kts 259°
2026-05-05 08:23 54.67185 -0.84393 37211 ft 429 kts 259°
2026-05-05 08:23 54.66589 -0.89437 36641 ft 428 kts 258°
2026-05-05 08:23 54.65986 -0.94497 35940 ft 430 kts 258°
2026-05-05 08:23 54.65378 -0.99570 35194 ft 433 kts 258°
2026-05-05 08:24 54.64765 -1.04680 34428 ft 435 kts 258°
2026-05-05 08:24 54.64149 -1.09802 33644 ft 436 kts 258°
2026-05-05 08:24 54.63535 -1.14877 33220 ft 429 kts 258°
2026-05-05 08:24 54.62926 -1.19882 32697 ft 425 kts 258°
2026-05-05 08:25 54.62321 -1.24836 32191 ft 421 kts 258°
2026-05-05 08:25 54.61717 -1.29774 31676 ft 418 kts 258°
2026-05-05 08:25 54.61118 -1.34658 31169 ft 415 kts 258°
2026-05-05 08:25 54.60520 -1.39519 30661 ft 413 kts 258°
2026-05-05 08:26 54.59923 -1.44343 30150 ft 411 kts 258°
2026-05-05 08:26 54.59328 -1.49151 29582 ft 408 kts 258°
2026-05-05 08:26 54.58740 -1.53912 29096 ft 403 kts 258°
2026-05-05 08:26 54.58163 -1.58564 28611 ft 399 kts 258°
2026-05-05 08:27 54.57579 -1.63230 28121 ft 394 kts 258°
2026-05-05 08:27 54.57196 -1.66277 27800 ft 392 kts 258°
2026-05-05 08:27 54.56423 -1.72374 27182 ft 386 kts 258°
2026-05-05 08:27 54.55985 -1.75398 26878 ft 384 kts 252°
2026-05-05 08:28 54.54857 -1.79542 26440 ft 382 kts 238°
2026-05-05 08:28 54.53175 -1.83065 25994 ft 383 kts 225°
2026-05-05 08:28 54.51016 -1.85777 25451 ft 387 kts 211°
2026-05-05 08:28 54.48496 -1.87464 24912 ft 393 kts 196°
2026-05-05 08:29 54.45810 -1.88351 24370 ft 394 kts 193°
2026-05-05 08:29 54.43103 -1.89191 23815 ft 395 kts 193°
2026-05-05 08:29 54.40403 -1.90024 23221 ft 395 kts 193°
2026-05-05 08:30 54.35065 -1.91668 22271 ft 389 kts 193°
2026-05-05 08:30 54.32406 -1.92493 21665 ft 390 kts 193°
2026-05-05 08:30 54.29760 -1.93319 21353 ft 384 kts 193°
2026-05-05 08:30 54.27142 -1.94136 20888 ft 382 kts 193°
2026-05-05 08:31 54.24612 -1.95367 20427 ft 376 kts 205°
2026-05-05 08:31 54.22359 -1.97550 19955 ft 370 kts 218°
2026-05-05 08:31 54.20495 -2.00532 19468 ft 366 kts 231°
2026-05-05 08:31 54.19008 -2.04039 18986 ft 363 kts 236°
2026-05-05 08:32 54.17583 -2.07517 18535 ft 361 kts 236°
2026-05-05 08:32 54.16143 -2.11017 18039 ft 359 kts 236°
2026-05-05 08:32 54.14684 -2.14468 17486 ft 357 kts 234°
2026-05-05 08:32 54.13179 -2.17828 16932 ft 356 kts 233°
2026-05-05 08:33 54.11650 -2.21130 16416 ft 354 kts 233°
2026-05-05 08:33 54.10118 -2.24395 15904 ft 351 kts 233°
2026-05-05 08:33 54.08599 -2.27642 15418 ft 349 kts 233°
2026-05-05 08:33 54.07096 -2.30873 14934 ft 347 kts 233°
2026-05-05 08:34 54.05610 -2.34085 14450 ft 344 kts 233°
2026-05-05 08:34 54.04136 -2.37285 14038 ft 341 kts 233°
2026-05-05 08:34 54.02557 -2.40182 13918 ft 330 kts 220°
2026-05-05 08:34 54.00583 -2.42054 13792 ft 323 kts 201°
2026-05-05 08:35 53.98403 -2.42720 13655 ft 317 kts 182°
2026-05-05 08:35 53.96225 -2.42341 13392 ft 314 kts 174°
2026-05-05 08:35 53.94073 -2.41796 13065 ft 312 kts 174°
2026-05-05 08:35 53.91927 -2.41251 12515 ft 317 kts 174°
2026-05-05 08:36 53.89772 -2.40547 12154 ft 317 kts 163°
2026-05-05 08:36 53.87806 -2.38887 12011 ft 310 kts 151°
2026-05-05 08:36 53.85990 -2.37070 11793 ft 306 kts 151°
2026-05-05 08:36 53.84164 -2.35238 11512 ft 304 kts 151°
2026-05-05 08:37 53.82350 -2.33416 11257 ft 303 kts 151°
2026-05-05 08:37 53.80532 -2.31592 10812 ft 307 kts 151°
2026-05-05 08:37 53.78684 -2.29746 10288 ft 306 kts 151°
2026-05-05 08:37 53.76869 -2.27937 9721 ft 301 kts 151°
2026-05-05 08:38 53.75085 -2.26153 9357 ft 288 kts 150°
2026-05-05 08:38 53.73417 -2.24479 9221 ft 270 kts 150°
2026-05-05 08:38 53.71852 -2.22910 9070 ft 254 kts 150°
2026-05-05 08:38 53.70358 -2.21418 8764 ft 248 kts 150°
2026-05-05 08:39 53.68884 -2.19949 8537 ft 245 kts 150°
2026-05-05 08:39 53.67421 -2.18495 8292 ft 243 kts 150°
2026-05-05 08:39 53.65966 -2.17051 8038 ft 242 kts 150°
2026-05-05 08:39 53.64518 -2.15615 7779 ft 241 kts 150°
2026-05-05 08:40 53.63097 -2.14207 7500 ft 240 kts 150°
2026-05-05 08:40 53.61652 -2.12772 7198 ft 241 kts 150°
2026-05-05 08:40 53.60215 -2.11343 6881 ft 243 kts 149°
2026-05-05 08:40 53.58703 -2.09840 6197 ft 260 kts 149°
2026-05-05 08:41 53.57126 -2.08269 5465 ft 267 kts 147°
2026-05-05 08:41 53.55762 -2.06168 4739 ft 269 kts 122°
2026-05-05 08:41 53.55136 -2.03225 4003 ft 269 kts 95°
2026-05-05 08:41 53.55004 -2.00128 3645 ft 258 kts 93°
2026-05-05 08:42 53.54518 -1.97373 3569 ft 239 kts 123°
2026-05-05 08:42 53.53375 -1.95588 3573 ft 214 kts 153°
2026-05-05 08:42 53.52013 -1.95043 3603 ft 194 kts 184°
2026-05-05 08:42 53.50768 -1.95714 3589 ft 187 kts 215°
2026-05-05 08:43 53.49878 -1.97248 3583 ft 184 kts 233°
2026-05-05 08:43 53.49086 -1.98919 3573 ft 184 kts 233°
2026-05-05 08:43 53.48291 -2.00590 3576 ft 183 kts 233°
2026-05-05 08:43 53.47508 -2.02229 3572 ft 177 kts 234°
2026-05-05 08:44 53.46743 -2.03831 3555 ft 175 kts 233°
2026-05-05 08:44 53.45985 -2.05416 3397 ft 174 kts 233°
2026-05-05 08:44 53.45231 -2.06992 3204 ft 173 kts 234°
2026-05-05 08:44 53.44479 -2.08561 2959 ft 172 kts 234°
2026-05-05 08:45 53.43732 -2.10120 2731 ft 171 kts 234°
2026-05-05 08:45 53.42990 -2.11667 2503 ft 170 kts 234°
2026-05-05 08:45 53.42253 -2.13203 2265 ft 168 kts 234°
2026-05-05 08:45 53.41536 -2.14695 2038 ft 159 kts 234°
2026-05-05 08:46 53.40872 -2.16075 1847 ft 146 kts 234°
2026-05-05 08:46 53.40250 -2.17369 1637 ft 141 kts 234°
2026-05-05 08:46 53.39639 -2.18641 1440 ft 139 kts 235°
2026-05-05 08:46 53.39035 -2.19897 1241 ft 138 kts 234°
2026-05-05 08:47 53.38430 -2.21154 1042 ft 138 kts 235°
2026-05-05 08:47 53.37831 -2.22398 840 ft 136 kts 236°
2026-05-05 08:47 53.37238 -2.23634 652 ft 135 kts 236°
2026-05-05 08:47 53.36650 -2.24862 464 ft 135 kts 234°
2026-05-05 08:48 53.36063 -2.26057 289 ft 135 kts 234°
2026-05-05 08:48 53.35527 -2.27180 251 ft 105 kts 231°
2026-05-05 08:48 53.35177 -2.27905 238 ft 55 kts 231°
2026-05-05 08:48 53.35024 -2.28223 232 ft 27 kts 233°
2026-05-05 08:49 53.34970 -2.28417 232 ft 16 kts 253°
2026-05-05 08:49 53.34948 -2.28580 231 ft 12 kts 260°
2026-05-05 08:49 53.34943 -2.28694 228 ft 9 kts 282°
2026-05-05 08:49 53.35005 -2.28748 227 ft 13 kts 18°
2026-05-05 08:50 53.35073 -2.28630 229 ft 15 kts 50°
2026-05-05 08:50 53.35133 -2.28506 227 ft 15 kts 51°
2026-05-05 08:50 53.35203 -2.28361 231 ft 16 kts 51°
2026-05-05 08:50 53.35255 -2.28253 232 ft 10 kts 48°
2026-05-05 08:51 53.35307 -2.28162 234 ft 11 kts 45°
2026-05-05 08:51 53.35364 -2.28069 236 ft 12 kts 44°
2026-05-05 08:51 53.35431 -2.27963 237 ft 15 kts 43°
2026-05-05 08:51 53.35509 -2.27836 239 ft 17 kts 44°
2026-05-05 08:52 53.35595 -2.27697 242 ft 10 kts 44°
2026-05-05 08:52 53.35644 -2.27616 245 ft 10 kts 45°
2026-05-05 08:52 53.35688 -2.27528 250 ft 9 kts 51°
2026-05-05 08:52 53.35715 -2.27473 254 ft 3 kts 51°
2026-05-05 08:53 53.35734 -2.27433 255 ft 7 kts 51°
2026-05-05 08:53 53.35772 -2.27355 255 ft 10 kts 51°
2026-05-05 08:53 53.35822 -2.27315 255 ft 9 kts 359°
2026-05-05 08:53 53.35896 -2.27318 255 ft 13 kts 359°
2026-05-05 08:54 53.35969 -2.27319 255 ft 11 kts 359°
2026-05-05 08:54 53.36007 -2.27319 255 ft 3 kts 358°
2026-05-05 08:54 53.36019 -2.27354 255 ft 4 kts 285°
2026-05-05 08:54 53.36021 -2.27391 255 ft 3 kts 276°
2026-05-05 08:55 53.36021 -2.27395 255 ft 0 kts 276°